www.pogodaiklimat.ru

Погода и климат >> Архив погоды >> Таиланд >> Пхетчабури


ПОГОДА в Пхетчабури

  • Прогноз погоды в Пхетчабури
  • Монитор погоды в Пхетчабури

АРХИВ ПОГОДЫ в Пхетчабури

Время (UTC), дата Ветер
(напр.,м/с)
 
Видим.   Явления Облачность Т
(С)
Тd
(С)
f
(%)
Тe
(С)
Тes
(С)
Комфортность P
(гПа)
Po
(гПа)
Тmin
(С)
Tmax
(С)
R
(мм)
R24
(мм)
S
(см)
03 13.06 ЮЗ 4 11 км 10/4 600 м
[Cu Sc Ac As Cs]
+32.4 +26.0 69 +48 +51 опасность
перегрева
1008.2 1007.7
06 13.06 Ю 10 11 км {дождь} 8/3 600 м
[Cu Sc Ac lent Cs]
+33.0 +26.8 70 +51 +51 опасность
перегрева
1006.7 1006.3 0.0
09 13.06 ЮВ 5 11 км 8/4 600 м
[Cu Sc Ac As Cs]
+33.7 +26.0 64 +49 +51 опасность
перегрева
1004.6 1004.1
12 13.06 З 3 11 км 9/4 600 м
[Cu Sc Ac lent Cs]
+31.5 +25.0 68 +45 +45 опасность
перегрева
1005.8 1005.4 +34.5
15 13.06 ЮЗ 7 8000 м слаб. дождь 10/4 600 м
[Cu Sc Ac As Cs]
+29.5 +24.0 72 +41 +41 опасность
перегрева
1008.1 1007.7 0.0
18 13.06 ЮЗ 15 11 км {дождь} 10/4 600 м
[Sc Ac As Cs]
+29.1 +24.1 74 +40 +40 очень
душно
1007.1 1006.7 0.1
21 13.06 Ю 3 11 км 8/3 600 м
[Sc Ac lent Cs]
+28.9 +24.8 79 +41 +41 опасность
перегрева
1006.3 1005.8
00 14.06 ЮЗ 10 11 км 8/3 600 м
[Cu Sc Ac lent Cs]
+28.1 +24.5 81 +40 +40 очень
душно
1007.3 1006.9 +27.5
03 14.06 Ю 3 11 км 8/3 600 м
[Sc Ac lent Cs]
+31.3 +24.6 68 +44 +50 опасность
перегрева
1008.5 1008.0
06 14.06 СЗ 7 11 км 6/3 600 м
[Sc Ac lent Cs]
+34.2 +24.7 58 +47 +51 опасность
перегрева
1006.0 1005.6
09 14.06 ЮВ 5 11 км 8/3 600 м
[Sc Ac As Cs]
+33.8 +26.9 67 +51 +53 опасность
перегрева
1004.2 1003.8
12 14.06 СЗ 4 11 км 8/3 600 м
[Sc Ac As Cs]
+31.5 +22.8 60 +41 +41 опасность
перегрева
1005.4 1005.0 +36.9
15 14.06 С 6 11 км 8/0
[Cs]
+30.0 +23.3 67 +40 +40 очень
душно
1008.2 1007.7
18 14.06 ЮЗ 5 11 км 8/0
[Cs]
+28.4 +24.1 78 +40 +40 очень
душно
1007.8 1007.4
21 14.06 З 6 11 км 8/0
[Cs]
+28.0 +23.5 77 +38 +38 очень
душно
1006.2 1005.7
00 15.06 штиль 0 11 км 6/0
[Ac lent Cs]
+27.0 +23.8 83 +37 +38 очень
душно
1007.7 1007.2 +26.7
03 15.06 Ю 3 11 км 6/0
[Ac lent Cs]
+33.0 +26.0 67 +49 +58 опасность
перегрева
1008.6 1008.2
06 15.06 Ю 6 11 км 4/0
[Cs]
+36.1 +27.5 61 +55 +63 опасность
перегрева
1007.1 1006.7
09 15.06 Ю 8 11 км 4/3 600 м
[Sc Cs]
+35.0 +28.2 68 +56 +57 опасность
перегрева
1004.6 1004.2
12 15.06 Ю 5 11 км 6/3 600 м
[Sc Ac lent Cs]
+32.0 +27.6 78 +52 +52 опасность
перегрева
1005.4 1005.0 +37.2
15 15.06 штиль 0 11 км 4/1 600 м
[Sc Cs]
+29.8 +23.1 67 +40 +40 очень
душно
1008.2 1007.8
18 15.06 ЮЗ 3 11 км 8/3 600 м
[Sc Ac lent Cs]
+29.3 +22.7 68 +39 +39 очень
душно
1007.8 1007.3
21 15.06 штиль 0 11 км 8/3 600 м
[Sc Ac lent Cs]
+28.3 +23.8 77 +39 +39 очень
душно
1006.3 1005.9
00 16.06 штиль 0 11 км 8/3 600 м
[Sc Ac lent Cs]
+28.0 +24.4 81 +39 +40 очень
душно
1007.1 1006.6 +27.4
03 16.06 ЮЗ 8 11 км 6/3 600 м
[Sc Ac lent Cs]
+32.6 +23.0 57 +43 +44 опасность
перегрева
1008.2 1007.7
06 16.06 ЮВ 8 11 км 8/4 600 м
[Sc Ac lent Cs]
+34.5 +26.6 64 +52 +53 опасность
перегрева
1006.0 1005.6
09 16.06 С 3 11 км 8/3 600 м
[Cb cap Ac lent Ci ing]
+31.9 +25.0 67 +45 +48 опасность
перегрева
1004.7 1004.3
12 16.06 СЗ 8 11 км {дождь} 10/4 600 м
[Cu Sc Ac As Cs]
+29.3 +25.3 79 +43 +43 опасность
перегрева
1006.1 1005.7 +36.5 0.6
15 16.06 СЗ 3 8000 м слаб. дождь 10/4 600 м
[Sc Ac As Cs]
+28.0 +24.4 81 +39 +39 очень
душно
1007.9 1007.4 0.0
18 16.06 ЮЗ 3 11 км в посл. час дождь 10/4 600 м
[Sc Ac As Cs]
+28.2 +25.1 83 +41 +41 опасность
перегрева
1007.2 1006.8 0.9
21 16.06 ЮЗ 10 11 км 10/4 600 м
[Sc Ac As Cs]
+28.0 +23.6 77 +38 +38 очень
душно
1005.9 1005.4
00 17.06 ЮЗ 7 11 км в посл. час дождь 10/4 600 м
[Cu Sc Ac As Cs]
+28.0 +24.6 82 +40 +40 очень
душно
1007.0 1006.6 +27.0 0.1
03 17.06 штиль 0 11 км 9/4 600 м
[Cu Sc Ac As Cs]
+29.5 +24.5 75 +42 +49 опасность
перегрева
1008.8 1008.3
06 17.06 Ю 9 11 км 9/3 600 м
[Cu Sc Ac As Cs]
+31.0 +26.1 75 +46 +47 опасность
перегрева
1007.3 1006.8
09 17.06 ЮЗ 4 11 км 9/3 600 м
[Cu Sc Ac As Cs]
+30.2 +22.7 64 +40 +42 очень
душно
1005.8 1005.4
12 17.06 штиль 0 11 км 8/3 600 м
[Sc Ac lent Cs]
+29.6 +22.6 66 +39 +39 очень
душно
1005.9 1005.5 +31.7
15 17.06 ЮЗ 3 11 км 8/0
[Ac lent Cs]
+29.4 +22.7 67 +39 +39 очень
душно
1007.4 1007.0
18 17.06 штиль 0 11 км 8/0
[Cs]
+29.3 +24.0 73 +41 +41 опасность
перегрева
1006.9 1006.5
21 17.06 Ю 11 11 км 8/0
[Cs]
+29.0 +24.6 77 +41 +41 опасность
перегрева
1005.8 1005.3
00 18.06 ЮЗ 8 11 км 8/3 600 м
[Cu med, cong Ac lent Cs]
+28.3 +23.8 77 +39 +39 очень
душно
1006.1 1005.7 +27.8
03 18.06 ЮЗ 6 11 км 8/3 600 м
[Cu med, cong Ac lent Cs]
+31.5 +22.4 59 +41 +44 опасность
перегрева
1007.8 1007.4
06 18.06 СЗ 12 11 км 10/5 600 м
[Cu Sc Ac As Cs]
+32.5 +22.8 57 +43 +43 опасность
перегрева
1006.7 1006.3
09 18.06 СЗ 8 11 км 10/5 600 м
[Cu Sc Ac As Cs]
+32.5 +22.8 57 +43 +43 опасность
перегрева
1005.3 1004.9
12 18.06 ЮЗ 8 11 км 10/4 600 м
[Cu Sc Ac As Cs]
+29.6 +24.7 75 +42 +42 опасность
перегрева
1006.0 1005.5 +32.9
15 18.06 Ю 4 11 км 8/3 600 м
[Sc Ac lent Cs]
+29.6 +24.6 75 +42 +42 опасность
перегрева
1007.6 1007.2
18 18.06 ЮЗ 10 11 км 9/3 600 м
[Sc Ac lent Cs]
+28.5 +24.9 81 +41 +41 опасность
перегрева
1007.2 1006.8
21 18.06 ЮЗ 10 11 км 10/3 600 м
[Sc Ac lent Cs]
+28.3 +24.4 79 +40 +40 очень
душно
1006.4 1005.9
00 19.06 штиль 0 11 км 10/4 600 м
[Sc Ac lent Cs]
+27.9 +24.4 81 +39 +40 очень
душно
1008.3 1007.9 +27.0
03 19.06 Ю 3 11 км 9/4 600 м
[Cu Sc Ac As Cs]
+31.6 +25.2 69 +46 +50 опасность
перегрева
1008.8 1008.3
06 19.06 ЮВ 2 8000 м слаб. дождь 9/3 600 м
[Cu Sc Ac As Cs]
+30.2 +26.4 80 +46 +55 опасность
перегрева
1007.6 1007.2 4
09 19.06 Ю 7 11 км 8/4 600 м
[Cu Sc Ac lent Cs]
+33.6 +28.0 73 +55 +55 опасность
перегрева
1005.2 1004.7
12 19.06 СВ 6 8000 м гроза, ливневой дождь 10/4 600 м
[Cb cap Ac As Ci ing]
+26.0 +24.6 92 +37 +37 очень
душно
1006.2 1005.8 +35.3 26
15 19.06 ЮВ 2 11 км {дождь} 8/3 600 м
[Cu Sc Ac lent Cs]
+28.0 +25.3 85 +41 +41 опасность
перегрева
1007.9 1007.5 0.2
18 19.06 З 2 11 км {дождь} 9/3 600 м
[Sc Ac As Cs]
+27.0 +25.6 92 +40 +40 очень
душно
1007.7 1007.3 26
21 19.06 СЗ 2 11 км 8/3 600 м
[Sc Ac lent Cs]
+26.0 +24.6 92 +37 +37 очень
душно
1006.9 1006.5
00 20.06 ЮЗ 2 11 км 6/3 600 м
[Cu Sc Ac lent Cs]
+26.1 +24.5 91 +37 +37 очень
душно
1008.4 1008.0 +25.5

 

Местоположение метеостанции Пхетчабури (Таиланд): широта 13.15 долгота 100.06 высота над уровнем моря 4 м.

В архиве по умолчанию представлена погода в Пхетчабури за последнюю неделю. Архивные данные за месяц целиком и за предыдущие месяцы, начиная с января 2011 года, Вы можете получить, выбрав интересующий диапазон дат из раскрывающегося списка и нажав кнопку "Ввод!".


*Определитесь, кто Вы:
робот инопланетянин человек

Внимание! Время в таблицах - всемирное. Для получения местного времени необходимо прибавить поправку, которая равна 7 ч.

Смотрите также архив погоды в соседних городах и на ближайших метеорологических станциях:

Погода в Самутсонгкхраме (Таиланд) (29 км)
Погода в Бангкок Пилот (Таиланд) (64 км)
Погода в Хуахине (Таиланд) (65 км)
Погода в Нонг Флуб Агромете (Таиланд) (73 км)
Погода на Ко Сичан (Таиланд) (80 км)
Погода в Бангкоке 2 (Таиланд) (82 км)
Погода в Бангна Агромете (Таиланд) (84 км)
Погода в Бангкоке (Таиланд) (84 км)
Погода в Самутрудкан Агромете (Таиланд) (85 км)
Погода в Паттайе (Таиланд) (90 км)

Пояснения к столбцам:

Ветер - указаны скорость ветра в м/с - средняя за 10 мин, порывы в срок и между сроками (в фигурных скобках) и направление, откуда дует ветер: С - северный, СВ - северо-восточный, В - восточный, ЮВ - юго-восточный, Ю - южный, ЮЗ - юго-западный, З - западный, СЗ - северо-западный.
Видимость - горизонтальная дальность видимости в метрах или километрах. При видимости от 1 до 10 км при отсутствии осадков обычно наблюдается дымка, при ухудшении видимости до 1 км и менее - туман. В сухую погоду видимость может ухудшаться дымом, пылью или мглою.
Явления - указаны атмосферные явления, наблюдавшиеся в срок или в последний час перед сроком; фигурными скобками обозначены явления, наблюдавшиеся между сроками (за 1-3 часа до срока); квадратными скобками обозначены град или гололедные отложения с указанием их диаметра в мм.
Облачность - указаны через наклонную черту общая и нижняя облачность в баллах и высота нижней границы облаков в метрах; квадратными скобками обозначены формы облаков: Ci - перистые, Cs - перисто-слоистые, Cc - перисто-кучевые, Ac - высококучевые, As - высокослоистые, Sc - слоисто-кучевые, Ns - слоисто-дождевые, Cu - кучевые, Cb - кучево-дождевые. Подробнее классификацию облаков см. в Атласе облаков (PDF).
T - Температура воздуха - температура, измеренная на высоте 2 м над землей.
Td - Температура точки росы - температура, при понижении до которой содержащийся в воздухе водяной пар достигнет насыщения.
f - Относительная влажность воздуха - влажноcть воздуха, измеренная на высоте 2 м над землей.
Te - Эффективная температура - температура, которую ощущает одетый по сезону человек в тени. Характеристика душности погоды. При расчете учитывается влияние влажности воздуха и скорости ветра на теплоощущения человека.
Tes - Эффективная температура на солнце - температура, которую ощущает человек, с поправкой на солнечный нагрев. Характеристика знойности погоды. Зависит от высоты солнца над горизонтом, облачности и скорости ветра. Ночью, в пасмурную погоду, а также при ветре 12 м/с и более поправка равна нулю.
P - Атмосферное давление - приведенное к уровню моря атмосферное давление.
Po - Атмосферное давление - измеренное на уровне метеостанции атмосферное давление.
Tmin - Минимальная температура - минимум температуры воздуха на высоте 2 м над землей.
Tmax - Максимальная температура - максимум температуры воздуха на высоте 2 м над землей.
R - Количество осадков - Количество выпавших осадков за период времени, мм. При наведении курсора мыши на число - период времени, за который выпало указанное количество осадков.
R24 - Количество осадков - Количество выпавших осадков за 24 часа, мм.
S - Снежный покров - Высота снежного покрова, см. При наведении курсора мыши на число - состояние снежного покрова и степень покрытия местности в баллах.